events-overview

37th Annual FirstHealth Pinehurst Turkey Trot

 

Pinehurst Turkey Trot 2017 - 5K Overall Female

The Village Arboretum Pinehurst, NC 11/18/2017 08:30AM

** Results are for the private use of participants and are the Intellectual Property of Set Up Events. Unauthorized use of these results is prohibited.

Place Bib NAME Age Sex CITY/STATE GunTime GunPace TagTime TagPace DQ
11863LIZ SHEEHAN24FRALEIGH NC00:21:2400:06:5500:21:1900:06:53 
21848HALDEN LEVIN15FPINEHURST NC00:21:3700:06:5900:21:3300:06:57 
31817MIA BOBROWSKI31FABERDEEN NC00:22:0400:07:0700:21:5700:07:05 
41870ALLAIRE WELK26FRALEIGH NC00:22:1300:07:1000:22:0900:07:09 
51907TRACY PETERSON36FWEST END NC00:22:5600:07:2400:22:4600:07:21 
61811KATHARINE AHRENS24FRALEIGH NC00:24:1400:07:4900:24:0900:07:48 
7746TALIA FERRERIO16FWHISPERING PINES NC00:24:2300:07:5200:24:1900:07:51 
8831LIJA MOORE30FCAMERON NC00:24:4400:07:5900:24:0500:07:46 
91825HEATHER DYER38FSOUTHERN PINES NC00:24:4800:08:0000:24:3700:07:57 
10693LORA BURNS28FRALEIGH NC00:24:5900:08:0400:24:4400:07:59 
11766ERICKA GRANATA41FWEST END NC00:25:0200:08:0500:24:5400:08:02 
121839ELIZABETH KACZOROWSKI13FWHISPERING PINES NC00:25:1000:08:0700:25:0500:08:06 
131897HAYLEY CLARK14FPINEHURST NC00:25:1000:08:0800:25:0300:08:05 
141822KEATON MAE CLARK13FPINEHURST NC00:25:1100:08:0800:25:0300:08:05 
15778TANYA HELMS57FCHAPEL HILL NC00:25:2900:08:1400:25:1800:08:10 
161808KELLEY ADAMS46FPINEHURST NC00:25:3500:08:1500:25:1100:08:08 
17737MAGGIE DUTTON42FFOXFIRE NC00:25:4400:08:1800:25:3800:08:16 
18841AMY O'REILLY43FPINEHURST NC00:26:0600:08:2500:26:0100:08:24 
19654MEREDITH ALLERDT33FPINEHURST NC00:26:1500:08:2800:25:1200:08:08 
20749KRISTINA FONDREN41FCAMERON NC00:26:4000:08:3600:26:1100:08:27 
21966HALEY KALLGREN13FPINEHURST NC00:26:4400:08:3800:26:1900:08:30 
22721LAUREN CRAIG31FPINEHURST NC00:26:5000:08:4000:26:2700:08:32 
231919ASHLEY WILKINS29FSOUTHERN PINES NC00:26:5600:08:4200:26:2900:08:33 
24824SHANNON MCKENNA30FSOUTHERN PINES NC00:26:5600:08:4200:26:3100:08:34 
25662MARGARET BAKER59FPINEHURST NC00:27:0000:08:4300:26:5400:08:41 
26745KEELEY FERDINAND9FPINEHURST NC00:27:0100:08:4300:26:5000:08:40 
271821CHESSNEY CHRNELICH28FFAYETTEVILLE NC00:27:1600:08:4800:27:1000:08:46 
28926LYNN ANTIL40FPINEHURST NC00:27:4100:08:5600:27:2400:08:51 
291866CHARRAN SIMS30FVASS NC00:27:4200:08:5700:27:2800:08:52 
30734MACKENZIE DULL30FFUQUAY VARINA NC00:27:4300:08:5700:26:5900:08:43 
PlaceBibNAMEAgeSexCITY/STATEGunTimeGunPaceTagTimeTagPaceDQ
31915BREANNE WOJCIK33FPINEHURST NC00:28:0300:09:0300:27:4700:08:58 
32716JENNY COOK33FCARTHAGE NC00:28:1900:09:0800:28:0800:09:05 
33727KATHLEEN DAVIS51FPINEHURST NC00:28:2000:09:0900:27:5500:09:01 
341867ELENA STROM45FSOUTHERN PINES NC00:28:2100:09:0900:28:0900:09:05 
35948NATALIE ELLIS23FWASHINGTON AK00:28:2100:09:0900:27:5000:08:59 
361910CECELIA TYNAN28FFAYETTEVILLE NC00:28:2200:09:0900:28:1100:09:06 
37813KIM MABE44FCARHAGE NC00:28:2800:09:1100:28:1800:09:08 
381826MELISSA ESTEP34FCARTHAGE NC00:28:2900:09:1200:28:1000:09:06 
391872MARIA WESLOH36FCARTHAGE NC00:28:2900:09:1200:28:1000:09:06 
40832MELISSIA MORGAN39FHAMLET NC00:28:4200:09:1600:28:1500:09:07 
41763DIANE GERBEREUX32FPINEHURST NC00:28:4300:09:1600:28:0500:09:04 
42862MICHELLE RODRIGUEZ46FPINEHURST NC00:28:5000:09:1800:28:0300:09:03 
43843SANDRA OVERBEY43FABERDEEN NC00:28:5000:09:1800:28:0100:09:03 
44876KARA SIMMONDS29FPINEHURST NC00:28:5800:09:2100:28:3600:09:14 
45866KIM RUST39FWEST END NC00:29:1500:09:2700:28:5000:09:18 
46683ASHLEY BOYD26FPINEBLUFF NC00:29:1600:09:2700:29:0000:09:22 
47806AMY LERITZ32FPINEHURST NC00:29:1700:09:2700:28:1300:09:06 
48814ANNA MACK27FPINEHURST NC00:29:1800:09:2700:28:2900:09:12 
49678GRETCHEN BORNHORST53FPINEHURST NC00:29:1900:09:2800:28:5100:09:19 
50986HANNAH SHERRILL24FMOUNT PLEASANT SC00:29:2600:09:3000:28:5300:09:19 
51987LAURA SHERRILL58FISLE OF PALMS SC00:29:2600:09:3000:28:5300:09:19 
52849NAIOMY PEREZ38FPINEHURST NC00:29:3400:09:3300:28:4800:09:18 
53912CATHERINE WILLIAMS35FWHISPERING PINES NC00:29:3600:09:3300:28:2000:09:09 
541855CHELSEA MARTIN13FCARTHAGE NC00:29:5100:09:3800:29:2300:09:29 
551852HOLLY R MARTIN44FCARTHAGE NC00:29:5300:09:3900:29:2700:09:30 
561840VERONICA KACZOROWSKI10FWHISPERING PINES NC00:29:5500:09:3900:29:4800:09:37 
571838ANDREA KACZOROWSKI41FWHISPERING PINES NC00:29:5500:09:3900:29:5500:09:39 
58989JILL SMITH55FRANDLEMAN NC00:29:5700:09:4000:29:4400:09:36 
59771CAROLYN HAGY54FABERDEEN NC00:29:5800:09:4000:29:3800:09:34 
60704CADENCE CANDELARIA11FPINEHURST NC00:30:0500:09:4300:29:5700:09:40 
61956SAMANTHA HINNANT33FLILLINGTON NC00:30:1000:09:4400:29:3200:09:32 
PlaceBibNAMEAgeSexCITY/STATEGunTimeGunPaceTagTimeTagPaceDQ
62677ELIZABETH BLACKMORE35FCAMERON NC00:30:1300:09:4500:29:5800:09:40 
63657DONNA ANDREWS50FSOUTHERN PINES NC00:30:1900:09:4700:29:3700:09:34 
64779AMY HIGGINS42FRALEIGH NC00:30:2100:09:4800:29:4000:09:35 
65971MARY MAYO54FABERDEEN NC00:30:2500:09:4900:30:0600:09:43 
66689MAKAYLA BROWN9FABERDEEN NC00:30:3400:09:5200:30:1000:09:44 
67983REBECCA RAZZANO37FPINEHURST NC00:30:3700:09:5300:30:1900:09:47 
68975NAMI MONTGOMERY33FPINEHURST NC00:30:3800:09:5300:30:1400:09:45 
69661EMILIA BAK32FSOUTHERN PINES NC00:31:0000:10:0000:30:1500:09:46 
70803LIBBY LENNON37FWHISPERING PNES NC00:31:0300:10:0100:30:1000:09:44 
71800DANIELLE LEDFORD31FCAMERON NC00:31:1500:10:0500:30:5600:09:59 
72886MARY SMITHSON45FSOUTHERN PINES NC00:31:1700:10:0600:30:5200:09:58 
73767TERRI GRANT45FCARTHAGE NC00:31:2900:10:1000:31:2300:10:08 
74917JESSICA WOODSON38FSPARTANBURG SC00:31:5200:10:1700:31:1300:10:05 
75883MORGAN SMITH29FELIZABETHTOWN NC00:32:1000:10:2300:31:1400:10:05 
761876SHERYL WILLIAMS37FABERDEEN NC00:32:1500:10:2400:32:1100:10:23 
77703DIANNA CAMERON34FSANFORD NC00:32:1500:10:2400:31:3200:10:11 
781835SUSAN HAUSER59FRALEIGH NC00:32:1800:10:2500:31:1400:10:05 
79919MADDY YATES12FPINEHURST NC00:32:2200:10:2700:31:5600:10:19 
80906KIERA WATSON8FCARY NC00:32:2600:10:2800:32:2000:10:26 
81904NATASHA WATSON43FCARY NC00:32:2600:10:2800:32:2000:10:26 
82853JENNIFER POULIN48FPINEHURST NC00:32:3200:10:3000:32:0900:10:23 
831899MCKENNA DALBY29FCHARLOTTE NC00:32:4800:10:3500:31:3500:10:12 
84880IVY SLUSSER9FPINEHURST NC00:32:5000:10:3600:32:2700:10:28 
85999JESSICA TULLAR31FMATTHEWS NC00:32:5100:10:3600:32:5100:10:36 
86879SARAH SLUSSER38FPINEHURST NC00:32:5100:10:3600:32:2700:10:29 
87984KATIE ROHLEDER39FHAMLET NC00:32:5100:10:3600:32:0300:10:21 
88826MEAGAN MCLEAN30FCAMERON NC00:32:5200:10:3600:31:4200:10:14 
89695NANCY BUTLER48FASHEBORO NC00:33:0700:10:4100:32:2500:10:28 
90993SUNNY SOWELL40FPINEHURST NC00:33:0700:10:4100:32:5300:10:37 
911844MORGAN LATSHA24FCAMERON NC00:33:0700:10:4100:31:4700:10:16 
92816SARA MANNINO42FSOUTHERN PINES NC00:33:0800:10:4100:31:4900:10:16 
PlaceBibNAMEAgeSexCITY/STATEGunTimeGunPaceTagTimeTagPaceDQ
93994MISTY SPIVEY33FBISCOE NC00:33:0800:10:4200:32:5300:10:37 
94823MEGAN MCDONALD25FPINEHURST NC00:33:2200:10:4600:33:0100:10:39 
95673NICOLE BENBOW35FPINEHURST NC00:33:2300:10:4600:33:0200:10:40 
96652NICOLE ADAM15FPINEHURST NC00:33:3700:10:5100:32:5700:10:38 
971888TRISH TURLEY49FPINEHURST NC00:33:5800:10:5800:33:4500:10:54 
98874SANDRA SIERRA60FFAYETTEVILLE NC00:34:1300:11:0300:33:4800:10:55 
99909PHOEBE WELTON14FWELTON NC00:34:2500:11:0600:34:1100:11:02 
100717DENISE COX55FCAMERON NC00:34:2700:11:0700:34:1500:11:03 
101840NANCY NIEDERMAIER64FPINEHURST NC00:34:3000:11:0800:34:2500:11:06 
102861KAREN ROBEANO59FPINEHURST NC00:34:3200:11:0900:34:2200:11:05 
103852GEORGIA POPP54FRAEFORD NC00:34:3800:11:1100:34:0100:10:59 
104829CATHY MONTES52FFAYETTEVILLE NC00:34:3800:11:1100:34:0100:10:59 
105762GUYLA GAUDET61FVASS NC00:34:4000:11:1100:33:4900:10:55 
106846AMANDA PAJUNEN29FVASS NC00:34:4800:11:1400:34:3000:11:08 
107854GEORGIA PROCTOR27FABERDEEN NC00:34:4800:11:1400:34:3100:11:09 
108686MARGOT BREWER49FVASS NC00:34:4900:11:1400:34:3200:11:09 
109722ASHLEY CUMMINGS30FRANDLEMAN NC00:34:5100:11:1500:34:3600:11:10 
1101818MONIKA BROWN66FSOUTHERN PINES NC00:35:0600:11:2000:34:4600:11:13 
111740HARMONIE ELLIOTT8FSANFORD NC00:35:1300:11:2200:35:0700:11:20 
1121833ELIZABETH GIRARD10FPINEHURST NC00:35:1400:11:2200:34:4000:11:11 
1131806LILY WOODHOUSE9FWEST END NC00:35:1400:11:2200:34:4100:11:11 
1141903CHERRI MERCER45FCARTHAGE NC00:35:1700:11:2300:35:1100:11:21 
115918LORI WRIGHT40FABERDEEN NC00:35:1800:11:2400:34:3100:11:08 
1161894SAMANTHA ALLEN43FWP NC00:35:2600:11:2600:35:1100:11:21 
1171911JUDY STEED62FCANDOR NC00:35:3200:11:2800:35:0100:11:18 
118804MADDY LENNON14FWHISPERING PINES NC00:35:3300:11:2800:34:4000:11:11 
1191802SATYA UNG8FWEST END NC00:35:3400:11:2900:34:1400:11:03 
120755JAMIE FRANCIS10FSOUTHERN PINES NC00:35:4400:11:3200:35:0500:11:19 
1211000AILEEN UNG46FWEST END NC00:35:5800:11:3700:34:4000:11:11 
1221916ELIZABETH BAILEY42FPINEHURST NC00:36:1100:11:4100:35:3400:11:29 
123996CHLOE SPIVEY12FBISCOE NC00:36:1700:11:4300:36:0300:11:38 
PlaceBibNAMEAgeSexCITY/STATEGunTimeGunPaceTagTimeTagPaceDQ
124997JULIE THOMAS32FPINEHURST NC00:36:2400:11:4500:35:3100:11:28 
125770WHITNEY GUPTON24FFAYETTEVILLE NC00:36:2400:11:4500:35:5000:11:34 
126729AMBER DEASON31FPINEHURST NC00:36:2500:11:4500:35:1200:11:22 
127881DENEANE SMITH51FLAURINBURG NC00:36:2600:11:4500:35:1400:11:22 
128705BRITTANY CHRISCOE29FROBBINS NC00:36:3700:11:4900:35:3000:11:27 
129776ERICA HAYES39FROCKINGHAM NC00:36:3700:11:4900:35:2900:11:27 
130751DAWN FOSTER44FPINEHURST NC00:36:3700:11:4900:35:2900:11:27 
131724MICHELLE CUTHRELL35FWEST END NC00:36:3800:11:4900:36:0700:11:39 
132995ANNABELLE SPIVEY8FBISCOE NC00:36:5100:11:5300:36:3700:11:49 
133868AMANDA SAUNDERS43FABERDEEN NC00:36:5200:11:5400:36:4300:11:51 
134932NICHOLE BLAND7FPINEHURST NC00:36:5300:11:5400:36:1000:11:40 
135651DAWN ADAM52FPINEHURST NC00:36:5400:11:5500:36:1300:11:41 
136857TALLY REEVES40FCAMERON NC00:37:0400:11:5800:36:5500:11:55 
137691NANCY BUNCH61FASHEBORO NC00:37:0500:11:5800:36:5100:11:54 
138931ADRIAN BLAND34FPINEHURST NC00:37:0800:11:5900:36:2500:11:45 
1391904SARA BOISSONNEAU32FFAYETTEVILLE NC00:37:1000:12:0000:36:2600:11:45 
140784MELISSA HOLT40FWHISPERING PINES NC00:37:2000:12:0300:36:2900:11:46 
1411869AMBER WARE27FPINEHURST NC00:37:2600:12:0500:36:3100:11:47 
142882LAURA SMITH34FSOPHIA NC00:37:2600:12:0500:37:0800:11:59 
143963LILLIAN JOLLY13FVASS NC00:37:4000:12:0900:37:2600:12:05 
144699MALLORY CADDELL33FWEST END NC00:38:1800:12:2200:38:0600:12:18 
145707EMILY CHRISTALDI24FCARTHAGE NC00:38:1900:12:2200:37:4400:12:11 
146961LIZ HUNTLEY24FRALEIGH NC00:38:1900:12:2200:37:4500:12:11 
147916DEBBIE WOOD58FPINEHURST NC00:38:2200:12:2300:37:5400:12:14 
148951KAITLYN FREIGO10FCARTHAGE NC00:38:3200:12:2600:38:2500:12:24 
149935CHRISTI BRACEY22FWEST END NC00:38:3900:12:2800:38:3100:12:26 
150781KELLY HIGH47FPINEHURST NC00:38:5600:12:3400:38:1400:12:20 
1511864EVA SHUMSKI6FPINEHURST NC00:39:0500:12:3700:38:3400:12:27 
152718MCLEAN COX33FWEST END NC00:39:1100:12:3900:38:0100:12:16 
1531913KIM SCRUTON40FPINEHURST NC00:39:1600:12:4000:38:4900:12:32 
154851PATRICIA PIERCE55FRANDLEMAN NC00:39:1700:12:4100:39:0100:12:35 
PlaceBibNAMEAgeSexCITY/STATEGunTimeGunPaceTagTimeTagPaceDQ
155972COLLEEN MCFADDEN44FABERDEEN NC00:39:2100:12:4200:39:0200:12:36 
156685SHAUN BRADLEY34FPINEHURST NC00:39:2500:12:4300:38:4600:12:31 
157663KIMBERLY BALL32FABERDEEN NC00:39:3300:12:4600:38:3000:12:25 
1581841COURTNEY KARRES50FPINEHURST NC00:39:4100:12:4900:38:4700:12:31 
159680ADA BOUCHARD56FWESTEND NC00:40:0600:12:5600:39:0900:12:38 
160797WENDY KNIGHT48FROCKINGHAM NC00:40:1000:12:5800:39:2600:12:44 
161869MICHAELA SAUNDERS19FABERDEEN NC00:40:1100:12:5800:40:0000:12:55 
162970DEBBIE LOOKABAUGH56FPINEHURST NC00:40:3900:13:0700:40:2700:13:03 
163665DONNA BARNES49FASHEBORO NC00:40:5100:13:1100:39:2800:12:44 
164974TONI MENDOZA25FCHARLOTTE NC00:40:5300:13:1200:39:2800:12:44 
165732NICOLE DROZ38FABERDEEN NC00:40:5800:13:1300:39:4900:12:51 
166731TERRY DEMUTH46FJACKSON SPRINGS NC00:41:0500:13:1500:39:5700:12:53 
167687VIKKI BRIEL60FPINEHURST NC00:41:2700:13:2300:40:5700:13:13 
168799JILL LAZUSKY57FPINEHRUST NC00:41:4300:13:2800:41:4300:13:28 
169788GWENDY HUTCHINSON60FPINEHURST NC00:41:4400:13:2800:41:4400:13:28 
170891PATTY SULLIVAN56FASHEBORO NC00:41:4600:13:2900:41:3200:13:24 
171793JENNIFER KING48FSOUTHERN PINES NC00:42:0300:13:3400:41:2000:13:20 
1721893ISABELLE ALLEN11FWP NC00:42:1000:13:3600:41:5400:13:31 
1731815FAYE BAXLEY57FPINEHURST NC00:42:3200:13:4400:41:1800:13:20 
174902LYNN WAINWRIGHT56FPINEHURST NC00:42:5600:13:5100:41:3900:13:27 
175884PAULA SMITH53FROCKINGHAM NC00:43:1500:13:5700:43:0700:13:55 
176811TRUDY LUTHER46FASHEBORO NC00:43:1800:13:5800:43:0000:13:53 
177847MARCIA PARKS62FASHEBORO NC00:43:1900:13:5900:43:0000:13:52 
178682ROBIN BOWYER57FPINEBLUFF NC00:43:3600:14:0400:42:2000:13:40 
179782KATIE HOADLEY26FPINEHURST NC00:43:3800:14:0500:42:2200:13:40 
180711ANN COCKMAN41FPINEHURST NC00:44:0400:14:1300:43:4700:14:08 
181921KRYSTINE ZWIEBEL28FPINEBLUFF NC00:45:2000:14:3800:44:2900:14:21 
182783TONI HOADLEY52FSOUTHERN PINES NC00:45:3600:14:4300:44:2300:14:19 
183768PAGE GREENE24FCARTHAGE NC00:45:4000:14:4400:44:4100:14:25 
1841824IVEY DULL27FRALEIGH NC00:45:4100:14:4400:44:5600:14:30 
185818KELLY MARTIN53FABERDEEN NC00:45:4100:14:4500:44:4400:14:26 
PlaceBibNAMEAgeSexCITY/STATEGunTimeGunPaceTagTimeTagPaceDQ
1861820MADISON BURRIS16FBISCOE NC00:45:4400:14:4500:45:3200:14:41 
187822LIZ MCDONALD34FABERDEEN NC00:45:4500:14:4600:44:1900:14:18 
188836BRYNN NEELY31FPINEHURST NC00:45:5600:14:4900:44:3200:14:22 
189964DENA KALLGREN45FPINEHURST NC00:46:0300:14:5200:45:1800:14:37 
190808JINA LINDENBERG51FPINEHURST NC00:46:0400:14:5200:45:0500:14:33 
1911810EMILY ADLER32FABERDEEN NC00:46:2000:14:5700:45:0300:14:32 
192943ENA CUNANAN37FPINEHURST NC00:46:5200:15:0700:45:2900:14:41 
193700DIANA CAGLE35FCAMERON NC00:46:5900:15:1000:46:5200:15:07 
194706JAMIE CHRISCOE40FCARTHAGE NC00:47:0100:15:1000:46:5300:15:08 
195934DANA BOWEN42FPINEHURST NC00:47:3900:15:2300:46:4300:15:04 
1961873JENI WILEY46FPINEHURST NC00:47:4000:15:2300:46:4600:15:06 
1971886KAREN LOWRY44FSOUTHERN PINES NC00:47:4100:15:2300:46:4500:15:05 
198719LEXUS CRABTREE24FHOFFMAN NC00:49:1000:15:5200:48:5300:15:46 
1991803JENNIFER VANDENBERG38FRAEFORD NC00:49:3100:15:5900:48:1100:15:33 
200859JOELLEN RICHTER51FPINEHURST NC00:50:3100:16:1800:49:2400:15:56 
201765SUSAN GOODFELLOW57FSOUTHERN PINES NC00:50:3100:16:1800:49:2100:15:56 
202785BROOKE HUNTER27FWEST END NC00:50:3200:16:1900:49:2300:15:56 
2031902MARIJA CAVANA41FWEST END NC00:50:4500:16:2200:50:1100:16:12 
204982LAUREN POE14FSANFORD NC00:50:5200:16:2500:50:2800:16:17 
205979AUDREY NORRIS24FSANFORD NC00:50:5500:16:2600:50:3300:16:19 
206947BARBARA EIDAM69FPINEHURST NC00:51:1800:16:3300:50:3600:16:20 
207976LINDA MOYNIHAN63FPINEHURST NC00:51:1800:16:3300:50:3800:16:20 
208850NICOLE PHILLIPS33FROBBINS NC00:51:4800:16:4300:50:4600:16:23 
2091896APRIL COMER38FROBBINS NC00:51:4800:16:4300:50:4500:16:23 
210667MAGGIE BARRY38FSOUTHERN PINES NC00:51:4900:16:4300:50:5900:16:27 
211798KIM KRAMER46FSOUTHERN PINES NC00:51:5700:16:4600:51:1900:16:34 
212878KARI SKELLINGTON27FABERDEEN NC00:51:5700:16:4600:51:2000:16:34 
213980RACHEL POE43FSANFORD NC00:52:2800:16:5600:52:0600:16:49 
214894DARLYNE TARVER61FANCHORAGE AK00:52:3300:16:5700:51:4000:16:40 
215864JENNIFER ROTECK32FABERDEEN NC00:52:3800:16:5900:51:4400:16:42 
2161845BARBARA LEVIN49FPINEHURST NC00:53:2100:17:1300:52:0600:16:49 
PlaceBibNAMEAgeSexCITY/STATEGunTimeGunPaceTagTimeTagPaceDQ
217747HOLLIE FLEMING32FFAYETTEVILLE NC00:54:1100:17:2900:53:1000:17:09 
218753JESSICA FRANCIS39FSOUTHERN PINES NC00:54:1200:17:2900:53:3000:17:16 
2191857JEANETTE MCBRIDE56FASHEBORO NC00:54:1800:17:3100:54:0000:17:26 
220701CINDY CALLICUTT55FASHEBORO NC00:54:1800:17:3100:54:0200:17:26 
221939JENNIFER CATALOGLU38FPINEHURST NC00:54:2100:17:3200:53:2300:17:13 
222933ANGELA BOLES39FWHISPERING PINES NC00:54:3500:17:3700:53:3500:17:17 
223877LINDSEY SIMMONS33FWHISPERING PINES NC00:54:3500:17:3700:53:3500:17:17 
224758CARRIE FRYE43FSANFORD NC00:54:3600:17:3700:53:3500:17:17 
225786PATRICIA HURLEY67FFAYETTEVILLE NC00:55:1900:17:5100:54:2200:17:33 
226872MANDY SEWELL45FABERDEEN NC00:56:5400:18:2100:56:2900:18:14 
227787TENNILLE HUSSEY41FROBBINS NC00:56:5500:18:2200:55:5600:18:03 
228908SOPHIE WATSON11FCARY NC00:57:0500:18:2500:56:3400:18:15 
229899LYLA TOMILIN5FAPEX NC00:57:0500:18:2500:56:3400:18:15 
230900STELLA TOMILIN8FAPEX NC00:57:0600:18:2600:56:3600:18:16 
231897JENNIFER TOMILIN63FPINEHURST NC00:57:0800:18:2600:56:3800:18:16 
232702DEEANN CALLOWAY41FSOUTHERN PINES NC00:57:2000:18:3000:55:5600:18:03 
233715MICHELLE CONE46FCARTHAGE NC00:57:2000:18:3000:55:5500:18:02 
234769KRIS GRUZESKI46FSOUTHERN PINES NC00:57:2000:18:3000:55:5200:18:02 
235865TAMMY ROUSE58FROBBINS NC00:57:2800:18:3300:56:3000:18:14 
236773CYNTHIA HARDIN40FREDSPING NC01:05:0400:21:0001:04:1500:20:44 

** Results are for the private use of participants and are the Intellectual Property of Set Up Events. Unauthorized use of these results is prohibited.